Location: Unspecified
(0.0000°N, 0.0000°E)
Time: 12:31:34
(UTC+00:00)

CBERS-1 - Pass Details

Date: 12 June 2023
Orbit: 767 x 776 km, 98.8° (Epoch: 21 September)

Event Time Altitude Azimuth Distance (km) Brightness Sun altitude
Rises 02:59:46 0° 20° (NNE) 3,239 7.8 -40.6°
Reaches altitude 10° 03:02:06 10° 23° (NNE) 2,315 7.0 -40.1°
Enters shadow 03:03:09 16° 26° (NNE) 1,915 6.5 -39.8°
